Location: Luz Observatory
(34.5000°N, 117.2833°W)
Time: 10:03:41
(UTC-07:00)

Hubble Space Telescope - Visible Passes

Search period start: 28 September 2016 00:00
Search period end: 08 October 2016 00:00
Orbit: 539 x 542 km, 28.5° (Epoch: 27 September)

Date Brightness Start Highest point End Pass type
(mag) Time Alt. Az. Time Alt. Az. Time Alt. Az.
03 Oct 3.2 20:09:17 10° S 20:09:54 12° S 20:09:54 12° S visible
04 Oct 2.8 19:58:50 10° SSW 20:00:53 16° S 20:00:53 16° S visible
05 Oct 2.4 19:48:34 10° SSW 19:51:36 20° SSE 19:51:47 20° SSE visible
06 Oct 2.2 19:38:25 10° SW 19:41:42 23° SSE 19:42:38 21° SE visible
07 Oct 2.1 19:28:20 10° SW 19:31:48 26° SSE 19:33:25 20° SE visible
